User: anonymous   Login
Location: Chuathbaluk
(61.5726°N, 159.2454°W)
Time: 17:13:41
(UTC+00:00)
Language:

Explorer 7 - Orbit

View from above orbital plane
View from above orbital plane
View from above satellite
View from above satellite

Ground track
Ground track

The orbit data is extracted from the following two-line orbital elements,

1 00022U 59009A   22266.85803690  .00002125  00000-0  17225-3 0  9994
2 00022  50.2822 170.7123 0133729 187.5340 172.3600 14.97447237594374
Epoch (UTC): 23 September 2022 20:35:34
Eccentricity: 0.0133729
inclination: 50.2822°
perigee height: 482 km
apogee height: 668 km
right ascension of ascending node: 170.7123°
argument of perigee: 187.5340°
revolutions per day: 14.97447237
mean anomaly at epoch: 172.3600°
orbit number at epoch: 59437

The dashed part of the orbit path shows where the satellite is in the earth's shadow,  

DLR